EN

Hourly Weather Guszczewina

Today, 28 November, Saturday

Time Temperature Precipitation Wind Pressure Humidity
00:00 +1°C° 0.3 mm 4 mps 748 mmHg 86%
01:00 +1°C° 0.3 mm 4 mps 748 mmHg 89%
02:00 0°C° 0.3 mm 4 mps 748 mmHg 91%
03:00 +1°C° 0.3 mm 3 mps 748 mmHg 92%
04:00 0°C° 0.3 mm 3 mps 748 mmHg 94%
05:00 0°C° 0.3 mm 3 mps 748 mmHg 95%
06:00 0°C° 0.1 mm 3 mps 749 mmHg 93%
07:00 -1°C° 0.1 mm 3 mps 749 mmHg 91%
08:00 -1°C° 0.1 mm 3 mps 749 mmHg 89%
09:00 -1°C° 0 mm 3 mps 749 mmHg 86%
10:00 -1°C° 0 mm 3 mps 750 mmHg 84%
11:00 -1°C° 0 mm 3 mps 750 mmHg 81%
12:00 -1°C° 0 mm 3 mps 750 mmHg 79%
13:00 -1°C° 0 mm 3 mps 750 mmHg 77%
14:00 -1°C° 0 mm 3 mps 750 mmHg 76%
15:00 -1°C° 0.1 mm 3 mps 750 mmHg 81%
16:00 -1°C° 0.1 mm 2 mps 750 mmHg 85%
17:00 -1°C° 0.1 mm 2 mps 750 mmHg 90%
18:00 -1°C° 0.3 mm 2 mps 750 mmHg 92%
19:00 -1°C° 0.3 mm 2 mps 750 mmHg 94%
20:00 -1°C° 0.3 mm 2 mps 750 mmHg 96%
21:00 -1°C° 0.2 mm 2 mps 750 mmHg 96%
22:00 -1°C° 0.2 mm 2 mps 750 mmHg 97%
23:00 -1°C° 0.2 mm 2 mps 750 mmHg 97%

Tomorrow, 29 November, Sunday

Time Temperature Precipitation Wind Pressure Humidity
00:00 -1°C° 0.2 mm 2 mps 751 mmHg 97%
01:00 -1°C° 0.2 mm 2 mps 751 mmHg 97%
02:00 +1°C° 0.2 mm 1 mps 751 mmHg 97%
03:00 +1°C° 0.1 mm 1 mps 750 mmHg 96%
04:00 +1°C° 0.1 mm 1 mps 750 mmHg 96%
05:00 0°C° 0.1 mm 1 mps 750 mmHg 96%
06:00 0°C° 0 mm 1 mps 750 mmHg 95%
07:00 -2°C° 0 mm 2 mps 750 mmHg 94%
08:00 -3°C° 0 mm 2 mps 750 mmHg 93%
09:00 -2°C° 0 mm 2 mps 750 mmHg 90%
10:00 -2°C° 0 mm 2 mps 750 mmHg 88%
11:00 -2°C° 0 mm 2 mps 751 mmHg 85%
12:00 -1°C° 0.1 mm 2 mps 750 mmHg 87%
13:00 -1°C° 0.1 mm 2 mps 750 mmHg 90%
14:00 -1°C° 0.1 mm 2 mps 750 mmHg 92%
15:00 -1°C° 0.1 mm 2 mps 750 mmHg 93%
16:00 -1°C° 0.1 mm 2 mps 750 mmHg 95%
17:00 -1°C° 0.1 mm 2 mps 750 mmHg 97%
18:00 -1°C° 0.2 mm 2 mps 750 mmHg 97%
19:00 -1°C° 0.2 mm 2 mps 751 mmHg 97%
20:00 -1°C° 0.2 mm 2 mps 751 mmHg 97%
21:00 -1°C° 0.1 mm 2 mps 751 mmHg 97%
22:00 -2°C° 0.1 mm 2 mps 751 mmHg 97%
23:00 -2°C° 0.1 mm 2 mps 751 mmHg 96%

Day after tomorrow, 30 November, Monday

Time Temperature Precipitation Wind Pressure Humidity
00:00 -2°C° 0 mm 2 mps 751 mmHg 96%
01:00 0°C° 0 mm 1 mps 752 mmHg 95%
02:00 0°C° 0 mm 1 mps 752 mmHg 94%
03:00 0°C° 0 mm 1 mps 752 mmHg 94%
04:00 0°C° 0 mm 1 mps 752 mmHg 95%
05:00 0°C° 0 mm 1 mps 752 mmHg 95%
06:00 -1°C° 0 mm 1 mps 752 mmHg 95%
07:00 -1°C° 0 mm 1 mps 753 mmHg 95%
08:00 -2°C° 0 mm 0 mps 753 mmHg 95%
09:00 0°C° 0 mm 1 mps 754 mmHg 92%
10:00 0°C° 0 mm 1 mps 754 mmHg 89%
11:00 +1°C° 0 mm 1 mps 754 mmHg 87%
12:00 -1°C° 0 mm 2 mps 754 mmHg 85%
13:00 -1°C° 0 mm 2 mps 754 mmHg 83%
14:00 -1°C° 0 mm 2 mps 755 mmHg 82%
15:00 -1°C° 0 mm 2 mps 755 mmHg 82%
16:00 -1°C° 0 mm 2 mps 755 mmHg 83%
17:00 -2°C° 0 mm 2 mps 755 mmHg 83%
18:00 -2°C° 0 mm 2 mps 755 mmHg 81%
19:00 -2°C° 0 mm 2 mps 755 mmHg 80%
20:00 -2°C° 0 mm 3 mps 756 mmHg 78%
21:00 -2°C° 0 mm 3 mps 756 mmHg 78%
22:00 -2°C° 0 mm 3 mps 756 mmHg 77%
23:00 -2°C° 0 mm 3 mps 756 mmHg 77%

1 December, Tuesday

Time Temperature Precipitation Wind Pressure Humidity
00:00 -2°C° 0 mm 3 mps 755 mmHg 77%
01:00 -2°C° 0 mm 3 mps 755 mmHg 78%
02:00 -4°C° 0 mm 3 mps 755 mmHg 78%
03:00 -4°C° 0 mm 3 mps 755 mmHg 78%
04:00 -4°C° 0 mm 3 mps 755 mmHg 78%
05:00 -4°C° 0 mm 3 mps 755 mmHg 78%
06:00 -4°C° 0 mm 3 mps 755 mmHg 77%
07:00 -2°C° 0 mm 3 mps 755 mmHg 76%
08:00 -2°C° 0 mm 3 mps 755 mmHg 74%
09:00 -2°C° 0 mm 3 mps 755 mmHg 73%
10:00 -2°C° 0 mm 3 mps 755 mmHg 72%
11:00 -2°C° 0 mm 3 mps 755 mmHg 70%
12:00 -2°C° 0 mm 3 mps 755 mmHg 70%
13:00 -2°C° 0 mm 3 mps 755 mmHg 69%
14:00 -1°C° 0 mm 3 mps 755 mmHg 69%
15:00 -2°C° 0 mm 3 mps 755 mmHg 72%
16:00 -4°C° 0 mm 3 mps 755 mmHg 76%
17:00 -4°C° 0 mm 3 mps 755 mmHg 79%
18:00 -4°C° 0 mm 3 mps 755 mmHg 80%
19:00 -4°C° 0 mm 3 mps 755 mmHg 81%
20:00 -4°C° 0 mm 3 mps 756 mmHg 82%
21:00 -4°C° 0 mm 3 mps 756 mmHg 84%
22:00 -4°C° 0 mm 3 mps 756 mmHg 85%
23:00 -5°C° 0 mm 3 mps 756 mmHg 87%

2 December, Wednesday

Time Temperature Precipitation Wind Pressure Humidity
00:00 -5°C° 0 mm 3 mps 756 mmHg 87%
01:00 -4°C° 0 mm 2 mps 756 mmHg 87%
02:00 -4°C° 0 mm 2 mps 756 mmHg 87%
03:00 -4°C° 0 mm 2 mps 756 mmHg 87%
04:00 -4°C° 0 mm 2 mps 756 mmHg 87%
05:00 -4°C° 0 mm 2 mps 756 mmHg 87%
06:00 -4°C° 0 mm 2 mps 756 mmHg 87%
07:00 -4°C° 0 mm 2 mps 756 mmHg 88%
08:00 -5°C° 0 mm 2 mps 756 mmHg 88%
09:00 -4°C° 0 mm 2 mps 756 mmHg 85%
10:00 -3°C° 0 mm 2 mps 756 mmHg 81%
11:00 -3°C° 0 mm 2 mps 757 mmHg 78%
12:00 -2°C° 0 mm 2 mps 756 mmHg 76%
13:00 -2°C° 0 mm 2 mps 756 mmHg 74%
14:00 -2°C° 0 mm 2 mps 756 mmHg 73%
15:00 -3°C° 0 mm 2 mps 756 mmHg 77%
16:00 -3°C° 0 mm 2 mps 756 mmHg 81%
17:00 -4°C° 0 mm 2 mps 755 mmHg 85%
18:00 -4°C° 0 mm 2 mps 755 mmHg 86%
19:00 -4°C° 0 mm 2 mps 755 mmHg 87%
20:00 -4°C° 0 mm 2 mps 755 mmHg 88%
21:00 -4°C° 0 mm 2 mps 755 mmHg 90%
22:00 -4°C° 0 mm 2 mps 755 mmHg 92%
23:00 -4°C° 0 mm 2 mps 755 mmHg 94%

3 December, Thursday

Time Temperature Precipitation Wind Pressure Humidity
00:00 -4°C° 0 mm 2 mps 755 mmHg 93%
01:00 -4°C° 0 mm 2 mps 755 mmHg 93%
02:00 -4°C° 0 mm 3 mps 755 mmHg 92%
03:00 -4°C° 0 mm 3 mps 755 mmHg 91%
04:00 -4°C° 0 mm 3 mps 754 mmHg 90%
05:00 -3°C° 0 mm 2 mps 754 mmHg 89%
06:00 -4°C° 0 mm 3 mps 754 mmHg 88%
07:00 -2°C° 0 mm 3 mps 754 mmHg 87%
08:00 -2°C° 0 mm 3 mps 754 mmHg 87%
09:00 -2°C° 0 mm 3 mps 754 mmHg 86%
10:00 -2°C° 0 mm 3 mps 754 mmHg 86%
11:00 -2°C° 0 mm 3 mps 754 mmHg 85%
12:00 -1°C° 0 mm 3 mps 754 mmHg 84%
13:00 -1°C° 0 mm 3 mps 753 mmHg 83%
14:00 -1°C° 0 mm 3 mps 753 mmHg 81%
15:00 -1°C° 0 mm 3 mps 753 mmHg 82%
16:00 -2°C° 0 mm 4 mps 753 mmHg 83%
17:00 -3°C° 0 mm 4 mps 753 mmHg 83%
18:00 -3°C° 0 mm 4 mps 753 mmHg 83%
19:00 -3°C° 0 mm 4 mps 753 mmHg 83%
20:00 -3°C° 0 mm 4 mps 752 mmHg 83%
21:00 -3°C° 0 mm 4 mps 752 mmHg 84%
22:00 -2°C° 0 mm 4 mps 752 mmHg 85%
23:00 -2°C° 0 mm 4 mps 752 mmHg 85%
Show more

We Need Your Consent

Meteoprog and our Service Providers may store and access personal data such as cookies, device identifiers or other similar technologies on your device and process such data to personalise content and ads, as well as provide social media features and to analyse the traffic.

  • Store and/or access information on your device

    Cookies, device identifiers or other information can be stored or accessed on your device for the purposes indicated above.

  • Personalised ads and content, ad and content measurement, audience insights, and products development

    Ads and content can be personalised based on a profile. More data can be added to better personalise ads and content. Ad and content performance can be measured. Insights about the audience who saw the ads and content can be derived. Such data can be used to develop or improve user’s experience, systems and software.

By clicking ‘I Agree’ you will allow the use of indicated cookies, device identifiers, web beacons or other similar technologies. Your settings can be changed in the browser on your device.

For certain purposes, legitimate interests may be relied on, rather than consent. You can read more about this in our Privacy and Cookie Policy.